When you browse on this site, cookies collect data to enhance your experience and personalize the content and advertising you see.
Visit our Privacy Policy to learn more. By continuing to use the site, you agree to this use of cookies and data.

Hourly Weather Middlesbrough

Today, 8 July, Wednesday

Time Temperature Precipitation Wind Pressure Humidity
00:00 +11°C° 0 mm 1 mps 760 mmHg 92%
01:00 +11°C° 0 mm 1 mps 759 mmHg 91%
02:00 +11°C° 0 mm 1 mps 759 mmHg 90%
03:00 +11°C° 0 mm 1 mps 759 mmHg 89%
04:00 +12°C° 0 mm 1 mps 759 mmHg 89%
05:00 +12°C° 0 mm 1 mps 759 mmHg 88%
06:00 +13°C° 0 mm 2 mps 759 mmHg 87%
07:00 +14°C° 0 mm 2 mps 760 mmHg 82%
08:00 +14°C° 0 mm 3 mps 760 mmHg 77%
09:00 +15°C° 0 mm 4 mps 760 mmHg 72%
10:00 +15°C° 0.1 mm 4 mps 760 mmHg 72%
11:00 +17°C° 0.1 mm 4 mps 761 mmHg 72%
12:00 +16°C° 0.1 mm 5 mps 761 mmHg 72%
13:00 +16°C° 0.1 mm 5 mps 761 mmHg 73%
14:00 +16°C° 0.1 mm 5 mps 761 mmHg 74%
15:00 +15°C° 0.1 mm 5 mps 761 mmHg 74%
16:00 +15°C° 0 mm 5 mps 760 mmHg 76%
17:00 +14°C° 0 mm 5 mps 760 mmHg 78%
18:00 +14°C° 0 mm 5 mps 760 mmHg 80%
19:00 +13°C° 0.1 mm 4 mps 760 mmHg 83%
20:00 +12°C° 0.1 mm 4 mps 760 mmHg 86%
21:00 +11°C° 0.1 mm 4 mps 759 mmHg 88%
22:00 +11°C° 1.1 mm 4 mps 759 mmHg 91%
23:00 +11°C° 1.1 mm 4 mps 759 mmHg 93%

Tomorrow, 9 July, Thursday

Time Temperature Precipitation Wind Pressure Humidity
00:00 +10°C° 1.1 mm 4 mps 759 mmHg 95%
01:00 +10°C° 1 mm 4 mps 758 mmHg 95%
02:00 +10°C° 1 mm 4 mps 758 mmHg 96%
03:00 +10°C° 1 mm 4 mps 758 mmHg 96%
04:00 +10°C° 0.4 mm 4 mps 757 mmHg 95%
05:00 +10°C° 0.4 mm 4 mps 757 mmHg 95%
06:00 +10°C° 0.4 mm 4 mps 757 mmHg 95%
07:00 +10°C° 0.1 mm 4 mps 758 mmHg 94%
08:00 +11°C° 0.1 mm 4 mps 758 mmHg 93%
09:00 +11°C° 0.1 mm 4 mps 758 mmHg 91%
10:00 +12°C° 0 mm 4 mps 758 mmHg 88%
11:00 +12°C° 0 mm 4 mps 759 mmHg 85%
12:00 +13°C° 0 mm 3 mps 759 mmHg 82%
13:00 +13°C° 0 mm 3 mps 759 mmHg 80%
14:00 +13°C° 0 mm 3 mps 759 mmHg 79%
15:00 +14°C° 0 mm 3 mps 759 mmHg 77%
16:00 +14°C° 0 mm 3 mps 759 mmHg 77%
17:00 +15°C° 0 mm 2 mps 759 mmHg 78%
18:00 +14°C° 0 mm 2 mps 758 mmHg 79%
19:00 +13°C° 0 mm 2 mps 759 mmHg 83%
20:00 +12°C° 0 mm 1 mps 759 mmHg 87%
21:00 +11°C° 0 mm 1 mps 759 mmHg 91%
22:00 +11°C° 0 mm 1 mps 759 mmHg 91%
23:00 +10°C° 0 mm 1 mps 759 mmHg 92%

Day after tomorrow, 10 July, Friday

Time Temperature Precipitation Wind Pressure Humidity
00:00 +10°C° 0 mm 1 mps 759 mmHg 92%
01:00 +10°C° 0.2 mm 1 mps 759 mmHg 92%
02:00 +11°C° 0.2 mm 1 mps 758 mmHg 91%
03:00 +11°C° 0.2 mm 1 mps 758 mmHg 91%
04:00 +10°C° 0.2 mm 2 mps 758 mmHg 90%
05:00 +12°C° 0.2 mm 2 mps 758 mmHg 90%
06:00 +12°C° 0.2 mm 2 mps 758 mmHg 89%
07:00 +12°C° 0.1 mm 3 mps 758 mmHg 86%
08:00 +12°C° 0.1 mm 5 mps 759 mmHg 83%
09:00 +13°C° 0.1 mm 6 mps 759 mmHg 81%
10:00 +13°C° 0.2 mm 6 mps 759 mmHg 81%
11:00 +13°C° 0.2 mm 6 mps 760 mmHg 81%
12:00 +12°C° 0.2 mm 7 mps 760 mmHg 82%
13:00 +14°C° 0.1 mm 6 mps 760 mmHg 78%
14:00 +14°C° 0.1 mm 5 mps 761 mmHg 74%
15:00 +15°C° 0.1 mm 5 mps 761 mmHg 70%
16:00 +15°C° 0.1 mm 4 mps 761 mmHg 71%
17:00 +14°C° 0.1 mm 3 mps 762 mmHg 72%
18:00 +15°C° 0.1 mm 1 mps 762 mmHg 73%
19:00 +14°C° 0 mm 1 mps 763 mmHg 75%
20:00 +13°C° 0 mm 1 mps 763 mmHg 77%
21:00 +12°C° 0 mm 1 mps 764 mmHg 80%
22:00 +12°C° 0 mm 2 mps 764 mmHg 83%
23:00 +10°C° 0 mm 2 mps 764 mmHg 86%

11 July, Saturday

Time Temperature Precipitation Wind Pressure Humidity
00:00 +9°C° 0 mm 3 mps 764 mmHg 89%
01:00 +9°C° 0 mm 3 mps 764 mmHg 90%
02:00 +7°C° 0 mm 4 mps 764 mmHg 90%
03:00 +7°C° 0 mm 4 mps 765 mmHg 90%
04:00 +8°C° 0 mm 4 mps 765 mmHg 88%
05:00 +10°C° 0 mm 4 mps 765 mmHg 86%
06:00 +10°C° 0 mm 4 mps 765 mmHg 84%
07:00 +12°C° 0 mm 4 mps 766 mmHg 79%
08:00 +13°C° 0 mm 4 mps 766 mmHg 74%
09:00 +15°C° 0 mm 4 mps 767 mmHg 70%
10:00 +15°C° 0 mm 4 mps 767 mmHg 67%
11:00 +17°C° 0 mm 3 mps 767 mmHg 64%
12:00 +18°C° 0 mm 3 mps 767 mmHg 61%
13:00 +18°C° 0.1 mm 3 mps 767 mmHg 62%
14:00 +18°C° 0.1 mm 3 mps 767 mmHg 63%
15:00 +18°C° 0.1 mm 3 mps 767 mmHg 64%
16:00 +18°C° 0.1 mm 3 mps 767 mmHg 68%
17:00 +18°C° 0.1 mm 2 mps 767 mmHg 71%
18:00 +17°C° 0.1 mm 2 mps 767 mmHg 75%
19:00 +16°C° 0.1 mm 3 mps 768 mmHg 79%
20:00 +13°C° 0.1 mm 3 mps 768 mmHg 84%
21:00 +12°C° 0.1 mm 3 mps 768 mmHg 89%
22:00 +11°C° 0 mm 3 mps 768 mmHg 89%
23:00 +10°C° 0 mm 3 mps 768 mmHg 89%

12 July, Sunday

Time Temperature Precipitation Wind Pressure Humidity
00:00 +10°C° 0 mm 2 mps 768 mmHg 90%
01:00 +10°C° 0 mm 2 mps 768 mmHg 90%
02:00 +9°C° 0 mm 2 mps 768 mmHg 90%
03:00 +9°C° 0 mm 2 mps 768 mmHg 90%
04:00 +10°C° 0 mm 2 mps 768 mmHg 89%
05:00 +12°C° 0 mm 2 mps 768 mmHg 88%
06:00 +12°C° 0 mm 2 mps 768 mmHg 87%
07:00 +14°C° 0 mm 2 mps 768 mmHg 82%
08:00 +14°C° 0 mm 3 mps 768 mmHg 76%
09:00 +17°C° 0 mm 3 mps 768 mmHg 71%
10:00 +17°C° 0 mm 2 mps 768 mmHg 70%
11:00 +18°C° 0 mm 2 mps 768 mmHg 68%
12:00 +19°C° 0 mm 2 mps 768 mmHg 66%
13:00 +19°C° 0 mm 3 mps 768 mmHg 67%
14:00 +19°C° 0 mm 3 mps 767 mmHg 67%
15:00 +19°C° 0 mm 4 mps 767 mmHg 68%
16:00 +19°C° 0 mm 4 mps 767 mmHg 70%
17:00 +18°C° 0 mm 3 mps 767 mmHg 72%
18:00 +18°C° 0 mm 3 mps 766 mmHg 74%
19:00 +17°C° 0 mm 3 mps 766 mmHg 76%
20:00 +14°C° 0 mm 3 mps 766 mmHg 78%
21:00 +13°C° 0 mm 3 mps 766 mmHg 80%
22:00 +13°C° 0 mm 3 mps 766 mmHg 79%
23:00 +13°C° 0 mm 3 mps 766 mmHg 78%

13 July, Monday

Time Temperature Precipitation Wind Pressure Humidity
00:00 +13°C° 0 mm 3 mps 766 mmHg 76%
01:00 +13°C° 0 mm 3 mps 765 mmHg 78%
02:00 +12°C° 0 mm 3 mps 765 mmHg 79%
03:00 +12°C° 0 mm 3 mps 764 mmHg 80%
04:00 +12°C° 0 mm 3 mps 764 mmHg 82%
05:00 +12°C° 0 mm 3 mps 764 mmHg 83%
06:00 +13°C° 0 mm 3 mps 763 mmHg 84%
07:00 +13°C° 0.1 mm 3 mps 763 mmHg 84%
08:00 +13°C° 0.1 mm 3 mps 763 mmHg 83%
09:00 +14°C° 0.1 mm 3 mps 763 mmHg 82%
10:00 +14°C° 0 mm 3 mps 762 mmHg 79%
11:00 +15°C° 0 mm 4 mps 762 mmHg 75%
12:00 +17°C° 0 mm 4 mps 762 mmHg 72%
13:00 +17°C° 0 mm 4 mps 762 mmHg 73%
14:00 +17°C° 0 mm 4 mps 761 mmHg 74%
15:00 +17°C° 0 mm 4 mps 761 mmHg 75%
16:00 +15°C° 0.1 mm 4 mps 761 mmHg 79%
17:00 +15°C° 0.1 mm 4 mps 760 mmHg 84%
18:00 +14°C° 0.1 mm 4 mps 760 mmHg 88%
19:00 +13°C° 0.2 mm 4 mps 760 mmHg 90%
20:00 +13°C° 0.2 mm 4 mps 760 mmHg 91%
21:00 +12°C° 0.2 mm 4 mps 760 mmHg 93%
22:00 +12°C° 0.5 mm 4 mps 760 mmHg 93%
23:00 +12°C° 0.5 mm 4 mps 759 mmHg 94%
Show more